Location: Bodham
(52.9000°N, 1.1667°E)
Time: 14:49:24
(UTC+00:00)

Cosmos 2112 Rocket - Pass Details

Date: 14 October 2025
Orbit: 753 x 782 km, 74.0° (Epoch: 13 November)

Event Time Altitude Azimuth Distance (km) Brightness Sun altitude
Rises 03:43:06 0° 336° (NNW) 3,260 7.2 -24.1°
Reaches altitude 10° 03:46:30 10° 358° (N) 2,323 6.7 -23.6°
Maximum altitude 03:49:38 16° 35° (NE) 1,946 6.7 -23.2°
Drops below altitude 10° 03:52:45 10° 72° (ENE) 2,305 7.6 -22.7°
Sets 03:56:06 0° 94° (E) 3,221 8.4 -22.3°
